ASL01D EDDF-EHAM

Flight info

Callsign ASL01D
Flight time 0h 47m
Altitude 24000
Route MARUN8M/25C MARUN Y152 ARPEG Z850 ABILU DCT NORKU
Aircraft A320/M-SDE3FGHIRWY/LB1

Departure

Time 2026-04-17 12:25
Airport Frankfurt Main Airport (EDDF)

Arrival

Time 2026-04-17 13:12
Airport Amsterdam Airport Schiphol (EHAM)
Time Latitude Longitude Altitude Speed Heading
2026-04-17 11:59 50.04802 8.56915 363 ft 0 kts 294°
2026-04-17 12:14 50.04796 8.56937 360 ft 4 kts 286°
2026-04-17 12:14 50.04792 8.56977 362 ft 4 kts 266°
2026-04-17 12:14 50.04797 8.57017 362 ft 4 kts 242°
2026-04-17 12:15 50.04813 8.57049 357 ft 4 kts 210°
2026-04-17 12:15 50.04818 8.57053 364 ft 1 kts 205°
2026-04-17 12:18 50.04810 8.57047 357 ft 4 kts 205°
2026-04-17 12:18 50.04770 8.57018 356 ft 9 kts 204°
2026-04-17 12:18 50.04703 8.56972 354 ft 12 kts 204°
2026-04-17 12:19 50.04647 8.56934 361 ft 10 kts 204°
2026-04-17 12:19 50.04573 8.56893 353 ft 14 kts 194°
2026-04-17 12:19 50.04504 8.56867 348 ft 12 kts 193°
2026-04-17 12:19 50.04421 8.56838 351 ft 13 kts 190°
2026-04-17 12:20 50.04339 8.56820 350 ft 0 kts 187°
2026-04-17 12:20 50.04333 8.56819 350 ft 5 kts 187°
2026-04-17 12:21 50.04275 8.56889 352 ft 17 kts 103°
2026-04-17 12:21 50.04317 8.57084 354 ft 23 kts 69°
2026-04-17 12:21 50.04381 8.57355 344 ft 30 kts 70°
2026-04-17 12:21 50.04443 8.57623 349 ft 25 kts 69°
2026-04-17 12:22 50.04503 8.57853 336 ft 14 kts 69°
2026-04-17 12:22 50.04530 8.57966 336 ft 6 kts 70°
2026-04-17 12:22 50.04545 8.58034 335 ft 8 kts 70°
2026-04-17 12:22 50.04570 8.58138 338 ft 12 kts 70°
2026-04-17 12:23 50.04603 8.58279 334 ft 15 kts 69°
2026-04-17 12:23 50.04642 8.58440 334 ft 15 kts 69°
2026-04-17 12:23 50.04622 8.58579 326 ft 14 kts 160°
2026-04-17 12:23 50.04524 8.58622 326 ft 13 kts 182°
2026-04-17 12:24 50.04482 8.58559 329 ft 0 kts 245°
2026-04-17 12:24 50.04478 8.58546 329 ft 7 kts 246°
2026-04-17 12:25 50.04349 8.58010 330 ft 99 kts 250°
2026-04-17 12:25 50.04021 8.56655 394 ft 161 kts 247°
2026-04-17 12:25 50.03600 8.55016 1170 ft 170 kts 249°
2026-04-17 12:25 50.03295 8.53229 2041 ft 172 kts 252°
2026-04-17 12:26 50.02898 8.51383 2423 ft 191 kts 255°
2026-04-17 12:26 50.02824 8.49202 2725 ft 213 kts 274°
2026-04-17 12:26 50.02974 8.46803 3134 ft 233 kts 275°
2026-04-17 12:26 50.03167 8.44266 3858 ft 239 kts 278°
2026-04-17 12:27 50.03799 8.41799 4462 ft 259 kts 307°
2026-04-17 12:27 50.05155 8.39921 5266 ft 269 kts 322°
2026-04-17 12:27 50.06668 8.38150 6180 ft 274 kts 322°
2026-04-17 12:27 50.08201 8.36347 7090 ft 278 kts 322°
2026-04-17 12:28 50.09790 8.34598 7966 ft 283 kts 330°
2026-04-17 12:28 50.11640 8.33516 8838 ft 287 kts 348°
2026-04-17 12:28 50.13641 8.33355 9727 ft 291 kts
2026-04-17 12:28 50.15625 8.34093 10502 ft 299 kts 16°
2026-04-17 12:29 50.17691 8.35073 10769 ft 322 kts 16°
2026-04-17 12:29 50.19912 8.36129 11024 ft 342 kts 16°
2026-04-17 12:29 50.22219 8.37228 11607 ft 350 kts 16°
2026-04-17 12:29 50.24562 8.38341 12305 ft 354 kts 15°
2026-04-17 12:30 50.26935 8.39469 13024 ft 358 kts 15°
2026-04-17 12:30 50.29333 8.40613 13744 ft 362 kts 16°
2026-04-17 12:30 50.31706 8.41815 14410 ft 365 kts 17°
2026-04-17 12:30 50.34156 8.42928 15003 ft 367 kts
2026-04-17 12:31 50.36711 8.42960 15580 ft 368 kts 352°
2026-04-17 12:31 50.39267 8.42500 16168 ft 371 kts 351°
2026-04-17 12:31 50.41844 8.42015 16766 ft 374 kts 351°
2026-04-17 12:31 50.44445 8.41514 17370 ft 378 kts 351°
2026-04-17 12:32 50.47061 8.41008 17984 ft 381 kts 351°
2026-04-17 12:32 50.49708 8.40499 18577 ft 385 kts 351°
2026-04-17 12:32 50.52373 8.39993 19116 ft 388 kts 351°
2026-04-17 12:32 50.55063 8.39487 19671 ft 390 kts 351°
2026-04-17 12:33 50.57738 8.38986 20233 ft 392 kts 351°
2026-04-17 12:33 50.60463 8.38476 20738 ft 396 kts 351°
2026-04-17 12:33 50.63213 8.37959 21266 ft 399 kts 351°
2026-04-17 12:33 50.65984 8.37436 21767 ft 402 kts 351°
2026-04-17 12:34 50.68769 8.36906 22266 ft 404 kts 351°
2026-04-17 12:34 50.71586 8.36368 22771 ft 407 kts 351°
2026-04-17 12:34 50.74375 8.35838 23266 ft 410 kts 351°
2026-04-17 12:34 50.77216 8.35298 23758 ft 412 kts 351°
2026-04-17 12:35 50.80070 8.34757 24112 ft 414 kts 351°
2026-04-17 12:35 50.82969 8.34207 24214 ft 417 kts 351°
2026-04-17 12:35 50.85853 8.33656 24231 ft 426 kts 351°
2026-04-17 12:35 50.88803 8.33092 24229 ft 428 kts 351°
2026-04-17 12:37 51.08557 8.24498 24216 ft 422 kts 328°
2026-04-17 12:37 51.11115 8.22208 24218 ft 422 kts 328°
2026-04-17 12:38 51.13680 8.19922 24217 ft 422 kts 328°
2026-04-17 12:38 51.16246 8.17637 24215 ft 422 kts 328°
2026-04-17 12:38 51.18806 8.15356 24215 ft 422 kts 328°
2026-04-17 12:38 51.21332 8.13101 24215 ft 422 kts 328°
2026-04-17 12:39 51.23928 8.10782 24209 ft 422 kts 328°
2026-04-17 12:39 51.26487 8.08489 24202 ft 422 kts 328°
2026-04-17 12:39 51.29051 8.06188 24197 ft 423 kts 328°
2026-04-17 12:39 51.31585 8.03912 24208 ft 423 kts 328°
2026-04-17 12:40 51.34148 8.01605 24205 ft 423 kts 328°
2026-04-17 12:40 51.36715 7.99287 24208 ft 423 kts 328°
2026-04-17 12:40 51.39282 7.96973 24210 ft 423 kts 328°
2026-04-17 12:40 51.41788 7.94508 24209 ft 421 kts 321°
2026-04-17 12:41 51.44140 7.91721 24213 ft 421 kts 321°
2026-04-17 12:41 51.46487 7.88926 24214 ft 421 kts 321°
2026-04-17 12:41 51.48836 7.86125 24215 ft 421 kts 321°
2026-04-17 12:41 51.51190 7.83314 24216 ft 421 kts 321°
2026-04-17 12:42 51.53537 7.80505 24213 ft 421 kts 321°
2026-04-17 12:42 51.55883 7.77694 24229 ft 421 kts 321°
2026-04-17 12:42 51.58224 7.74886 24230 ft 420 kts 321°
2026-04-17 12:42 51.60567 7.72073 24222 ft 420 kts 321°
2026-04-17 12:43 51.62917 7.69253 24215 ft 421 kts 321°
2026-04-17 12:43 51.65266 7.66434 24211 ft 421 kts 321°
2026-04-17 12:43 51.67612 7.63615 24208 ft 421 kts 321°
2026-04-17 12:43 51.69933 7.60826 24206 ft 421 kts 321°
2026-04-17 12:44 51.72283 7.57997 24206 ft 422 kts 321°
2026-04-17 12:44 51.74629 7.55167 24205 ft 422 kts 320°
2026-04-17 12:44 51.76980 7.52322 24202 ft 422 kts 320°
2026-04-17 12:44 51.79325 7.49472 24199 ft 422 kts 320°
2026-04-17 12:45 51.81668 7.46617 24214 ft 422 kts 320°
2026-04-17 12:45 51.84012 7.43763 24211 ft 422 kts 320°
2026-04-17 12:45 51.86368 7.40903 24205 ft 422 kts 320°
2026-04-17 12:45 51.88718 7.38053 24205 ft 422 kts 320°
2026-04-17 12:46 51.91066 7.35196 24203 ft 422 kts 320°
2026-04-17 12:46 51.93420 7.32325 24202 ft 422 kts 320°
2026-04-17 12:46 51.95760 7.29461 24144 ft 419 kts 320°
2026-04-17 12:46 51.98027 7.26683 23916 ft 411 kts 320°
2026-04-17 12:47 52.00332 7.23853 23669 ft 408 kts 320°
2026-04-17 12:47 52.02590 7.21078 23390 ft 407 kts 320°
2026-04-17 12:47 52.04839 7.18309 23116 ft 405 kts 320°
2026-04-17 12:47 52.07058 7.15577 22878 ft 404 kts 320°
2026-04-17 12:48 52.09297 7.12815 22597 ft 402 kts 320°
2026-04-17 12:48 52.11518 7.10070 22332 ft 400 kts 320°
2026-04-17 12:48 52.13734 7.07333 22069 ft 399 kts 320°
2026-04-17 12:48 52.15942 7.04606 21810 ft 398 kts 320°
2026-04-17 12:49 52.18142 7.01887 21549 ft 397 kts 320°
2026-04-17 12:49 52.20328 6.99151 21289 ft 395 kts 317°
2026-04-17 12:49 52.22307 6.96091 21039 ft 390 kts 309°
2026-04-17 12:49 52.24035 6.92702 20792 ft 388 kts 306°
2026-04-17 12:50 52.25739 6.89285 20549 ft 387 kts 306°
2026-04-17 12:50 52.27442 6.85880 20302 ft 386 kts 306°
2026-04-17 12:50 52.29139 6.82489 20057 ft 385 kts 306°
2026-04-17 12:50 52.30830 6.79103 19811 ft 384 kts 306°
2026-04-17 12:51 52.32512 6.75728 19569 ft 383 kts 306°
2026-04-17 12:51 52.34192 6.72354 19343 ft 382 kts 306°
2026-04-17 12:51 52.35868 6.68985 19105 ft 381 kts 306°
2026-04-17 12:51 52.37535 6.65623 18870 ft 380 kts 306°
2026-04-17 12:52 52.39195 6.62268 18636 ft 379 kts 306°
2026-04-17 12:52 52.40851 6.58919 18390 ft 378 kts 306°
2026-04-17 12:52 52.42503 6.55575 18117 ft 377 kts 305°
2026-04-17 12:52 52.44126 6.52284 17846 ft 375 kts 305°
2026-04-17 12:53 52.45567 6.48762 17594 ft 370 kts 295°
2026-04-17 12:53 52.46576 6.44913 17335 ft 365 kts 285°
2026-04-17 12:53 52.47141 6.40886 17073 ft 361 kts 275°
2026-04-17 12:53 52.47365 6.36797 16817 ft 359 kts 272°
2026-04-17 12:54 52.47568 6.32717 16559 ft 358 kts 272°
2026-04-17 12:54 52.47770 6.28656 16301 ft 357 kts 272°
2026-04-17 12:54 52.47971 6.24607 16046 ft 355 kts 272°
2026-04-17 12:54 52.48169 6.20575 15800 ft 354 kts 272°
2026-04-17 12:55 52.48367 6.16548 15551 ft 353 kts 272°
2026-04-17 12:55 52.48562 6.12540 15306 ft 352 kts 272°
2026-04-17 12:55 52.48753 6.08545 15062 ft 351 kts 272°
2026-04-17 12:55 52.48942 6.04610 14784 ft 348 kts 272°
2026-04-17 12:56 52.49132 6.00659 14260 ft 344 kts 272°
2026-04-17 12:56 52.49320 5.96754 13682 ft 342 kts 272°
2026-04-17 12:56 52.49502 5.92865 13046 ft 340 kts 272°
2026-04-17 12:56 52.49683 5.88965 12214 ft 345 kts 272°
2026-04-17 12:57 52.49866 5.85024 11406 ft 348 kts 272°
2026-04-17 12:57 52.50049 5.81047 10619 ft 351 kts 272°
2026-04-17 12:57 52.50231 5.77046 9821 ft 353 kts 272°
2026-04-17 12:57 52.50412 5.73069 8980 ft 354 kts 272°
2026-04-17 12:58 52.50595 5.68989 8140 ft 354 kts 272°
2026-04-17 12:58 52.50774 5.64957 7460 ft 351 kts 272°
2026-04-17 12:58 52.50948 5.61097 7272 ft 335 kts 272°
2026-04-17 12:58 52.51104 5.57370 7205 ft 317 kts 269°
2026-04-17 12:59 52.50969 5.53887 7217 ft 297 kts 263°
2026-04-17 12:59 52.50787 5.50600 7219 ft 281 kts 263°
2026-04-17 12:59 52.50617 5.47476 7228 ft 270 kts 262°
2026-04-17 12:59 52.50450 5.44419 7221 ft 268 kts 262°
2026-04-17 13:00 52.50282 5.41373 7217 ft 268 kts 262°
2026-04-17 13:00 52.50113 5.38325 7219 ft 268 kts 262°
2026-04-17 13:00 52.49947 5.35320 7217 ft 258 kts 262°
2026-04-17 13:00 52.49791 5.32465 7217 ft 244 kts 262°
2026-04-17 13:01 52.49639 5.29720 7220 ft 241 kts 262°
2026-04-17 13:01 52.49611 5.26961 7138 ft 244 kts 278°
2026-04-17 13:01 52.50171 5.24361 6836 ft 247 kts 291°
2026-04-17 13:01 52.50898 5.21805 6532 ft 247 kts 292°
2026-04-17 13:02 52.51640 5.19265 6222 ft 247 kts 293°
2026-04-17 13:02 52.52382 5.16733 5939 ft 245 kts 293°
2026-04-17 13:02 52.53122 5.14213 5644 ft 244 kts 293°
2026-04-17 13:02 52.53858 5.11707 5345 ft 243 kts 293°
2026-04-17 13:03 52.54596 5.09195 5056 ft 243 kts 292°
2026-04-17 13:03 52.55331 5.06714 5000 ft 241 kts 293°
2026-04-17 13:03 52.55819 5.05066 5001 ft 242 kts 292°
2026-04-17 13:03 52.56557 5.02577 5003 ft 242 kts 293°
2026-04-17 13:04 52.57469 4.99238 4853 ft 238 kts 280°
2026-04-17 13:04 52.57585 4.97433 4637 ft 234 kts 266°
2026-04-17 13:04 52.57541 4.94781 4344 ft 231 kts 263°
2026-04-17 13:04 52.57465 4.92140 4063 ft 229 kts 263°
2026-04-17 13:05 52.57392 4.89609 3946 ft 221 kts 263°
2026-04-17 13:05 52.57319 4.87050 3579 ft 224 kts 263°
2026-04-17 13:05 52.57246 4.84541 3391 ft 218 kts 263°
2026-04-17 13:05 52.57174 4.82071 3256 ft 209 kts 261°
2026-04-17 13:06 52.56840 4.79891 3142 ft 193 kts 235°
2026-04-17 13:06 52.56031 4.78250 3025 ft 176 kts 224°
2026-04-17 13:06 52.55197 4.76843 2846 ft 165 kts 223°
2026-04-17 13:06 52.54431 4.75572 2711 ft 148 kts 223°
2026-04-17 13:07 52.53740 4.74430 2556 ft 135 kts 222°
2026-04-17 13:07 52.52944 4.73737 2320 ft 131 kts 189°
2026-04-17 13:07 52.52035 4.73605 2076 ft 131 kts 188°
2026-04-17 13:07 52.51127 4.73453 2011 ft 132 kts 188°
2026-04-17 13:08 52.50229 4.73285 2011 ft 132 kts 188°
2026-04-17 13:08 52.49317 4.73102 2007 ft 132 kts 188°
2026-04-17 13:08 52.48407 4.72914 2012 ft 132 kts 189°
2026-04-17 13:08 52.47497 4.72729 2006 ft 132 kts 189°
2026-04-17 13:09 52.46586 4.72556 2003 ft 132 kts 189°
2026-04-17 13:09 52.45673 4.72405 2004 ft 132 kts 186°
2026-04-17 13:09 52.44754 4.72216 1848 ft 134 kts 191°
2026-04-17 13:09 52.43840 4.72012 1614 ft 132 kts 188°
2026-04-17 13:10 52.42927 4.71868 1403 ft 132 kts 187°
2026-04-17 13:10 52.42004 4.71751 1217 ft 134 kts 187°
2026-04-17 13:10 52.41070 4.71650 1032 ft 135 kts 187°
2026-04-17 13:10 52.40138 4.71574 845 ft 136 kts 185°
2026-04-17 13:11 52.39173 4.71490 637 ft 138 kts 186°
2026-04-17 13:11 52.38222 4.71389 483 ft 139 kts 186°
2026-04-17 13:11 52.37256 4.71278 251 ft 139 kts 186°
2026-04-17 13:11 52.36297 4.71203 87 ft 138 kts 185°
2026-04-17 13:12 52.35378 4.71093 15 ft 122 kts 185°
2026-04-17 13:12 52.34720 4.71039 18 ft 16 kts 180°
2026-04-17 13:12 52.34549 4.71040 18 ft 32 kts 179°
2026-04-17 13:13 52.34333 4.71107 14 ft 31 kts 156°
2026-04-17 13:13 52.34157 4.71243 16 ft 19 kts 154°
2026-04-17 13:13 52.34012 4.71280 14 ft 23 kts 184°
2026-04-17 13:13 52.33880 4.71266 14 ft 14 kts 183°
2026-04-17 13:14 52.33783 4.71257 15 ft 7 kts 183°
2026-04-17 13:14 52.33711 4.71252 13 ft 15 kts 182°
2026-04-17 13:14 52.33586 4.71245 13 ft 20 kts 181°
2026-04-17 13:14 52.33443 4.71231 15 ft 23 kts 186°
2026-04-17 13:15 52.33259 4.71217 14 ft 29 kts 167°
2026-04-17 13:15 52.33204 4.71278 15 ft 23 kts 126°